Theta_e
294 294 294 294 294 295 296 296 297 296 296 296 296 296 296 296 297 296 297 300 303 305 306 308 308 307 308 310 311 320 321 323 325 330 331 331 331 331 330 330 329 326 325 327
293 293 294 295 296 296 296 296 295 295 296 295 295 295 294 295 295 296 296 297 299 301 305 305 307 308 307 308 310 314 317 317 320 326 329 330 328 330 330 329 328 327 325 324
294 294 295 295 296 297 297 298 297 296 296 295 295 294 294 295 295 295 296 297 298 299 301 304 305 306 307 307 310 313 317 316 319 322 326 326 325 327 328 328 328 327 325 324
292 294 296 295 296 297 298 297 298 298 299 296 295 295 294 294 294 296 297 297 297 299 300 303 304 306 307 307 309 312 315 314 318 318 323 324 324 323 325 327 327 327 326 325
293 294 295 295 296 297 297 297 296 297 297 296 295 295 294 294 294 294 295 297 297 298 299 301 303 304 307 308 308 309 313 314 316 315 316 321 322 321 323 324 327 326 325 325
294 295 294 293 296 295 296 296 295 295 291 294 295 294 294 293 294 294 295 296 297 297 298 299 302 304 306 308 309 309 312 313 314 317 314 316 316 320 321 322 324 325 324 324
292 293 293 295 290 292 293 295 292 289 287 291 294 296 295 295 294 296 297 296 297 299 300 299 301 303 305 307 309 311 312 312 315 316 317 316 319 317 318 319 321 323 324 322
288 291 292 293 291 294 292 296 297 295 296 295 296 296 297 292 292 293 295 295 294 294 296 297 299 302 305 307 308 309 309 310 311 313 315 317 319 319 316 319 319 320 321 322
292 290 292 292 292 294 294 291 294 295 290 295 295 296 293 292 290 291 292 293 293 292 291 292 295 296 301 305 307 309 309 312 314 315 317 317 319 318 316 316 318 319 319 319
291 292 292 293 291 294 295 296 291 288 292 291 294 294 292 290 289 289 289 291 291 290 291 291 291 293 298 301 303 306 309 311 314 316 315 315 315 315 316 316 316 316 316 317
290 289 289 287 283 288 293 291 292 293 293 291 296 292 291 289 289 288 288 290 289 289 289 290 290 291 293 297 299 301 305 306 308 311 312 311 313 312 313 313 315 316 316 316
289 292 282 287 290 289 294 294 294 292 289 290 293 292 290 288 288 288 287 287 287 287 288 289 290 290 292 294 295 298 300 301 302 304 306 308 310 311 311 312 312 312 315 315
291 293 293 286 288 291 290 293 293 291 292 289 293 289 289 288 287 286 286 285 285 285 286 288 288 289 292 293 292 293 295 296 298 299 301 303 307 309 311 310 311 311 312 312
293 285 291 292 291 289 292 292 292 290 289 289 289 288 287 287 286 285 285 284 283 283 284 285 286 288 290 290 292 293 293 293 293 295 297 300 303 306 308 308 309 309 309 310
292 292 284 289 289 290 291 292 291 287 288 290 290 287 287 287 285 284 284 283 283 283 283 284 285 286 287 289 291 292 292 293 292 293 295 296 297 301 304 305 305 306 306 307
289 290 285 290 289 289 294 291 291 289 287 288 288 288 287 287 284 283 283 283 282 282 282 283 284 285 286 287 289 290 290 292 293 293 293 294 295 297 298 300 301 302 303 304
290 290 287 286 287 290 292 289 290 287 286 286 286 287 286 286 284 282 282 282 282 281 282 282 283 284 285 285 286 288 289 289 291 292 293 294 295 295 295 296 297 299 300 301
284 291 291 286 286 292 292 290 290 289 287 286 287 286 285 285 283 282 282 281 281 281 281 282 282 283 284 285 286 287 288 289 289 289 291 292 293 294 295 296 296 296 297 298
291 292 291 289 281 290 294 289 288 289 288 284 284 283 282 284 285 283 282 281 281 281 281 282 282 283 284 285 285 286 287 287 288 288 289 289 290 291 292 293 294 295 296 297
288 289 292 286 289 289 288 286 289 286 287 280 280 278 278 285 280 279 282 281 280 280 282 283 284 284 284 284 284 285 286 286 286 286 287 288 289 289 290 291 291 291 292 293
277 275 288 288 291 287 288 287 289 289 287 282 284 283 283 281 281 282 281 280 279 280 280 281 282 282 283 284 285 285 285 285 284 285 285 286 287 288 289 289 290 290 290 291
284 283 281 283 282 289 288 289 287 284 284 284 285 284 283 283 282 281 280 280 280 280 280 280 280 281 281 281 282 283 284 283 284 285 285 285 286 286 287 287 288 288 289 289
286 287 288 288 286 284 287 288 287 286 285 285 284 284 283 282 281 280 280 280 280 280 280 280 280 280 280 280 281 281 281 282 284 284 284 285 285 285 285 286 286 287 287 288
288 286 288 287 286 284 288 287 286 286 285 284 284 284 282 281 281 280 280 280 280 280 281 281 281 281 280 280 280 280 280 281 281 282 284 284 284 284 284 284 284 285 285 286
289 289 288 288 289 287 288 289 288 285 284 284 284 283 282 281 280 280 280 280 280 280 280 281 281 281 281 280 280 280 280 280 280 281 281 283 283 283 283 284 284 284 284 284
288 288 288 289 289 290 289 289 287 286 285 284 284 281 281 280 280 280 280 280 280 280 280 280 281 281 280 280 280 280 279 280 280 280 280 281 281 282 283 283 283 283 283 283
Wind_Speed
9 7 12 18 14 19 19 23 23 21 22 20 23 19 19 21 23 20 26 31 36 41 41 35 33 36 36 33 33 33 35 36 38 48 48 47 48 48 45 42 38 34 35 36
6 11 18 10 14 17 18 19 24 23 21 17 20 21 16 19 18 22 24 29 26 25 43 40 41 37 32 41 39 40 39 37 39 43 46 47 47 47 45 45 42 40 36 36
7 18 19 18 14 20 17 15 21 22 23 19 17 19 18 20 18 26 32 29 28 31 29 32 40 44 41 43 42 44 45 39 38 45 44 40 40 43 48 49 46 43 40 37
9 7 9 17 18 17 17 10 14 20 13 12 5 14 19 15 20 16 18 26 27 30 32 34 30 40 43 45 50 42 44 40 40 39 43 40 44 47 48 46 45 44 43 43
12 20 20 19 13 15 17 13 20 22 14 8 12 7 20 8 18 18 16 22 27 32 34 35 37 35 22 41 51 47 45 42 42 40 42 45 45 44 45 45 49 47 46 45
14 15 13 9 8 15 20 16 17 12 2 5 23 8 18 5 14 16 15 17 22 32 37 38 36 36 27 17 41 47 46 43 42 44 43 45 46 47 45 44 48 51 48 47
20 3 10 5 13 11 7 10 4 4 2 7 4 8 16 16 16 14 9 13 15 7 12 30 33 33 27 23 22 29 33 35 38 40 43 42 45 44 43 45 46 48 51 50
5 22 8 11 14 7 10 3 5 6 7 17 10 5 4 10 14 20 20 19 22 23 15 6 7 15 22 25 27 27 29 30 30 35 38 40 42 42 42 44 44 46 48 51
7 12 19 14 4 3 7 3 5 6 6 9 3 3 9 20 18 17 16 21 19 21 24 19 13 11 15 20 25 30 31 30 30 32 36 42 43 41 42 43 44 43 43 45
4 16 6 6 8 2 6 4 5 3 5 6 4 4 6 18 18 16 14 13 17 19 24 19 16 10 10 13 14 19 26 25 27 27 31 31 34 36 39 42 42 43 42 42
9 5 10 6 2 8 5 3 2 4 3 3 6 3 4 9 10 12 12 15 17 18 19 19 16 13 9 8 6 8 16 20 22 26 27 28 29 31 34 37 41 41 40 39
5 5 4 11 19 7 4 5 2 3 5 3 3 2 8 10 11 12 13 19 19 20 20 19 19 16 16 12 6 2 6 12 16 22 26 28 28 29 31 33 36 38 38 37
6 3 7 9 6 3 3 7 7 10 5 3 3 3 8 9 11 15 15 20 20 20 27 23 17 19 25 18 13 9 3 5 9 13 20 25 26 28 27 29 30 34 38 38
7 2 6 10 16 11 13 14 6 4 2 4 2 5 11 12 14 13 19 24 24 28 25 21 22 26 23 17 16 16 12 6 3 4 8 14 26 25 26 25 26 28 32 36
2 5 4 15 17 15 16 6 4 3 5 2 4 1 7 8 12 12 17 19 19 21 26 25 25 24 17 17 20 17 14 10 7 4 1 5 12 25 24 26 25 25 26 28
6 8 3 17 10 7 2 1 3 2 4 2 7 2 7 6 12 14 20 22 22 23 25 25 24 21 22 23 18 14 14 12 11 9 6 3 4 9 16 21 23 23 23 25
5 3 0 6 4 8 2 2 3 2 2 2 3 4 7 4 7 11 16 18 19 21 22 23 22 21 20 18 16 14 13 12 13 12 10 8 3 2 5 10 14 19 22 25
3 3 1 5 6 3 2 2 2 3 3 2 3 5 8 6 7 21 21 19 20 21 20 20 19 19 19 17 17 15 13 12 12 12 12 11 9 6 2 4 8 11 15 18
10 3 3 1 2 4 3 3 2 3 4 2 2 6 5 16 9 10 21 19 18 18 19 18 18 18 17 18 17 16 15 14 12 13 12 11 10 9 7 5 1 5 9 13
2 3 3 3 2 3 5 3 5 3 2 4 2 3 5 6 3 3 14 15 15 16 17 18 20 19 19 19 17 16 16 15 16 15 13 11 8 7 7 6 5 4 1 3
3 3 5 6 4 6 4 4 4 2 4 5 3 2 2 2 2 4 7 10 13 16 17 17 19 21 21 19 17 18 16 18 17 14 12 10 8 6 5 4 3 3 2 1
5 2 3 2 2 5 4 1 4 4 7 7 5 3 2 3 5 4 5 10 14 18 19 20 20 20 19 18 18 17 17 16 14 13 12 11 10 8 6 4 3 2 2 2
2 6 3 6 5 4 8 6 6 5 7 9 7 5 5 5 5 6 9 11 14 16 17 18 18 18 19 19 19 18 18 16 14 13 12 11 10 9 7 6 3 2 3 4
3 4 3 3 4 4 10 9 10 9 9 9 8 7 7 7 7 7 7 9 11 14 16 18 19 19 19 18 18 17 16 15 13 12 11 11 9 8 7 6 4 2 2 4
4 5 3 5 9 5 12 17 13 13 12 11 10 9 9 8 7 6 6 7 9 12 15 18 20 22 22 21 18 16 15 14 13 11 10 10 9 9 7 5 4 3 2 2
6 6 4 5 9 9 4 6 16 16 16 15 14 13 10 8 6 4 3 5 8 11 15 18 20 23 23 22 19 18 17 15 14 12 11 9 8 7 6 5 4 3 2 2
Wind_Direction
321 293 269 274 256 254 268 272 275 270 274 268 271 272 269 266 272 280 294 267 252 251 261 265 262 253 249 251 233 224 219 226 229 218 216 215 206 212 207 209 214 220 219 221
321 263 268 278 301 282 278 276 277 279 272 266 265 273 278 281 275 269 270 273 282 286 251 255 255 258 255 248 238 229 223 225 224 224 214 213 209 224 214 211 213 213 214 222
248 268 291 291 284 293 281 268 267 264 282 274 269 276 272 263 261 262 263 256 257 266 266 255 249 248 252 245 235 227 225 225 218 220 221 220 215 214 208 209 213 213 215 219
280 268 286 293 291 292 289 312 308 304 271 271 159 281 258 252 262 255 264 250 241 253 256 254 249 248 250 240 232 225 227 228 222 216 218 217 219 208 209 215 219 220 217 218
264 298 295 300 280 287 288 289 298 291 272 284 257 257 275 260 262 256 251 247 236 237 249 247 247 246 250 234 229 222 223 226 226 221 218 217 221 226 226 226 220 220 223 220
267 281 281 245 291 315 290 298 283 277 126 250 258 192 284 267 265 271 264 250 246 233 247 247 253 250 247 235 228 224 218 220 224 222 226 224 226 224 222 225 225 223 223 225
319 243 291 298 344 322 359 309 308 350 340 239 332 229 250 359 1 345 318 303 260 293 277 246 248 249 237 218 215 214 215 217 221 223 225 229 227 227 223 224 225 225 224 225
322 321 1 315 305 277 308 263 331 310 289 295 291 238 84 31 8 7 18 34 26 33 41 40 260 221 208 201 201 200 205 212 220 225 228 228 229 227 225 226 228 228 229 229
326 290 309 293 264 179 326 0 262 272 255 263 248 44 231 9 11 10 2 18 27 22 39 29 43 91 161 174 185 193 200 205 211 218 222 226 227 224 225 227 228 231 233 233
253 297 299 282 352 310 333 323 332 336 310 311 306 72 349 354 356 354 353 5 16 23 40 27 27 31 100 130 157 180 195 201 206 212 221 223 232 234 230 223 227 233 235 237
273 216 281 358 285 276 331 335 293 265 242 255 333 59 357 351 344 350 348 3 20 25 51 42 37 36 52 102 138 182 191 201 209 216 219 222 224 231 229 228 227 232 236 241
232 256 279 263 289 235 190 356 331 290 296 276 242 85 354 357 357 359 4 7 18 24 49 54 46 51 62 49 30 169 217 226 227 227 229 225 225 226 231 231 228 230 232 236
294 249 312 329 355 350 26 334 320 297 240 251 306 321 348 14 11 7 7 9 13 23 44 51 39 55 56 51 41 41 346 265 248 235 231 229 222 226 229 233 231 230 232 236
338 261 215 278 279 284 297 311 313 309 348 326 301 312 341 358 12 8 10 7 14 28 35 41 39 51 57 54 55 51 42 23 340 269 238 226 215 220 220 221 225 230 232 234
245 266 220 266 264 275 278 267 284 26 302 38 303 285 351 360 6 358 8 16 18 23 32 37 42 46 52 58 59 54 51 47 46 48 172 207 220 219 224 224 224 223 227 232
306 269 299 295 295 236 226 255 352 337 320 313 333 315 4 355 16 12 8 9 15 19 25 37 42 41 41 47 51 55 51 51 54 57 65 87 200 212 220 228 228 228 226 225
243 244 312 266 295 302 123 272 267 174 272 270 357 305 323 350 23 21 13 13 14 21 28 35 37 39 45 45 45 48 52 49 51 53 58 63 79 176 212 220 227 230 230 230
245 299 220 275 338 3 224 203 228 155 199 291 279 312 318 311 138 44 27 21 17 25 29 34 36 42 47 48 46 45 48 52 51 49 48 50 55 56 109 205 218 227 232 233
209 237 276 265 224 272 164 264 170 171 218 232 277 318 317 332 171 33 17 20 22 28 32 37 40 43 46 47 43 43 48 47 45 47 44 41 40 40 48 56 49 229 231 232
134 190 204 347 251 259 230 249 196 137 276 203 162 294 328 9 66 279 9 14 27 37 40 37 42 45 46 43 42 41 42 41 42 36 32 27 23 21 21 30 34 35 10 244
330 338 218 243 276 290 235 230 165 67 246 182 195 149 36 116 185 358 22 31 45 48 50 48 46 44 42 40 36 35 34 36 30 25 23 20 17 11 2 357 352 7 15 359
175 150 237 64 36 292 171 162 177 202 160 157 182 139 140 100 88 68 54 55 54 53 51 50 45 42 37 33 31 32 33 29 22 20 15 12 13 9 4 349 320 290 265 240
288 188 190 175 224 229 193 228 213 195 170 176 190 183 157 137 119 89 72 60 52 47 44 40 36 33 28 25 23 20 19 14 16 13 8 12 10 5 1 350 329 283 249 235
258 170 202 54 270 227 224 223 214 202 190 183 197 181 166 144 133 105 79 62 50 42 35 30 24 20 16 11 4 2 3 3 358 357 1 3 3 3 359 354 340 315 254 232
201 156 195 257 277 268 236 229 222 195 189 189 184 182 173 158 140 118 89 58 39 29 24 20 14 7 0 355 350 339 336 338 347 346 345 351 353 351 351 346 339 336 317 262
195 218 190 222 230 225 253 255 209 197 196 191 182 176 174 170 151 132 78 38 17 8 8 8 2 356 351 347 345 333 329 322 319 328 329 328 333 338 341 337 323 321 303 269